Sterling, IL

2:13 AM CST on November 19, 2019 (GMT -0600)
Whiteside County-Bittorf

Weather History for KSQI - September, 2019

Change the Weather History Date:

Tuesday, September 3, 2019

  Actual Average Record
Temperature  
Mean Temperature 74 °F -  
Max Temperature 86 °F 78 °F 93 °F (2012)
Min Temperature 64 °F 55 °F 44 °F (2005)
Cooling Degree Days 9    
Growing Degree Days 24 (Base 50)    
Moisture  
Dew Point 68 °F    
Average Humidity 85    
Maximum Humidity 100    
Minimum Humidity 65    
Precipitation  
Precipitation 0.14 in - - ()
Sea Level Pressure  
Sea Level Pressure 29.63 in    
Wind  
Wind Speed 6 mph ()    
Max Wind Speed 16 mph    
Max Gust Speed 24 mph    
Visibility 9.3 miles    
Events Rain , Thunderstorm    
Averages and records for this station are not official NWS values.
T = Trace of Precipitation, MM = Missing Value Source: Averaged Metar Reports

Daily Weather History Graph

Daily Weather History Graph

Search for Another Location

Airport or City:

Astronomy

Sep. 03, 2019 Rise Set
Actual Time 6:26 AM CDT 7:29 PM CDT
Civil Twilight 5:57 AM CDT 7:57 PM CDT
Nautical Twilight 5:23 AM CDT 8:31 PM CDT
Astronomical Twilight 4:48 AM CDT 9:06 PM CDT
Moon 11:23 AM CDT (9/3) 10:21 PM CDT (9/3)
Length of Visible Light 13h 59m
Length of Day
13h 02m
Waxing Crescent, 25% of the Moon is Illuminated
Sep 3
Waxing Crescent
Sep 5
First Quarter
Sep 13
Full
Sep 21
Last Quarter
Sep 28
New

Hourly Weather History & Observations

Time (CDT) Temp. Heat Index Dew Point Humidity Pressure Visibility Wind Dir Wind Speed Gust Speed Precip Events Conditions
12:56 AM 69.1 °F - 66.9 °F 93% 29.59 in 10.0 mi Calm Calm - N/A   Clear
1:56 AM 68.0 °F - 66.0 °F 93% 29.58 in 10.0 mi Calm Calm - N/A   Clear
2:56 AM 68.0 °F - 66.0 °F 93% 29.56 in 10.0 mi Variable 4.6 mph - N/A   Clear
3:56 AM 66.9 °F - 64.9 °F 93% 29.52 in 10.0 mi Variable 4.6 mph - N/A   Clear
4:56 AM 68.0 °F - 64.9 °F 90% 29.56 in 7.0 mi East 3.5 mph - 0.00 in Rain , Thunderstorm Light Rain
5:56 AM 66.9 °F - 66.0 °F 97% 29.50 in 8.0 mi Variable 5.8 mph 18.4 mph 0.07 in Rain , Thunderstorm Rain
6:27 AM 68.0 °F - 66.2 °F 94% 29.89 in 10.0 mi SSE 8.1 mph 17.3 mph 0.01 in Rain Light Rain
6:56 AM 69.1 °F - 66.9 °F 93% 29.47 in 6.0 mi South 10.4 mph 19.6 mph 0.02 in Rain Rain
7:30 AM 69.8 °F - 66.2 °F 88% - 6.0 mi North - - 0.03 in Rain , Thunderstorm Rain
7:56 AM 69.1 °F - 66.9 °F 93% 29.52 in 10.0 mi ENE 6.9 mph - 0.04 in   Overcast
8:12 AM 69.8 °F - 66.2 °F 88% 29.92 in 9.0 mi Variable 3.5 mph - 0.01 in Rain Light Rain
8:26 AM 69.8 °F - 66.2 °F 88% 29.91 in 10.0 mi ESE 5.8 mph - 0.01 in   Overcast
8:47 AM 69.8 °F - 66.2 °F 88% 29.92 in 10.0 mi ESE 6.9 mph - 0.01 in Thunderstorm Overcast
8:56 AM 69.1 °F - 66.9 °F 93% 29.52 in 10.0 mi ESE 5.8 mph - 0.01 in   Overcast
9:56 AM 69.1 °F - 66.9 °F 93% 29.50 in 10.0 mi Variable 4.6 mph - 0.00 in   Overcast
10:56 AM 69.1 °F - 68.0 °F 96% - 5.0 mi North - - N/A Rain Light Rain
11:11 AM 69.8 °F - 68.0 °F 94% 29.88 in 5.0 mi Variable 4.6 mph - 0.00 in Rain Light Rain
11:33 AM 69.8 °F - 69.8 °F 100% 29.87 in 7.0 mi SE 4.6 mph - 0.00 in Rain Light Rain
11:56 AM 72.0 °F - 70.0 °F 93% 29.46 in 10.0 mi SSE 5.8 mph - 0.00 in   Overcast
12:46 PM 77.0 °F - 73.4 °F 89% 29.83 in 10.0 mi South 8.1 mph - N/A   Mostly Cloudy
12:56 PM 79.0 °F - 73.9 °F 84% 29.45 in 10.0 mi Variable 5.8 mph - N/A   Mostly Cloudy
1:56 PM 79.0 °F - 75.0 °F 88% 29.49 in 10.0 mi West 11.5 mph - N/A   Overcast
2:17 PM 84.2 °F 94.1 °F 77.0 °F 79% 29.88 in 10.0 mi WSW 10.4 mph - N/A   Mostly Cloudy
2:31 PM 82.4 °F 89.5 °F 75.2 °F 79% 29.86 in 10.0 mi WSW 11.5 mph - N/A   Partly Cloudy
2:56 PM 82.0 °F 88.6 °F 75.0 °F 79% 29.44 in 10.0 mi WSW 11.5 mph - N/A   Partly Cloudy
3:56 PM 82.0 °F 89.4 °F 75.9 °F 82% 29.42 in 10.0 mi WSW 13.8 mph - N/A   Clear
4:21 PM 84.2 °F 92.3 °F 75.2 °F 74% 29.79 in 10.0 mi SW 9.2 mph - N/A   Partly Cloudy
4:56 PM 84.9 °F 91.4 °F 73.0 °F 67% 29.40 in 10.0 mi West 16.1 mph - N/A   Partly Cloudy
5:56 PM 82.9 °F 87.0 °F 70.0 °F 65% 29.42 in 10.0 mi West 15.0 mph 24.2 mph N/A   Clear
6:10 PM 82.4 °F 86.3 °F 69.8 °F 66% 29.83 in 10.0 mi West 15.0 mph - N/A   Partly Cloudy
6:56 PM 79.0 °F - 68.0 °F 69% 29.45 in 10.0 mi West 15.0 mph - N/A   Mostly Cloudy
7:13 PM 77.0 °F - 68.0 °F 74% 29.87 in 10.0 mi West 12.7 mph - N/A   Scattered Clouds
7:56 PM 75.0 °F - 64.9 °F 71% 29.49 in 10.0 mi WNW 6.9 mph - N/A   Clear
8:56 PM 70.0 °F - 64.0 °F 81% 29.51 in 10.0 mi West 8.1 mph - N/A   Partly Cloudy
9:56 PM 68.0 °F - 62.1 °F 81% 29.54 in 10.0 mi West 8.1 mph - N/A   Clear
10:56 PM 64.9 °F - 61.0 °F 87% 29.55 in 10.0 mi WNW 6.9 mph - N/A   Clear
11:56 PM 66.0 °F - 59.0 °F 78% 29.58 in 10.0 mi WNW 4.6 mph - N/A   Clear